Flag for U.S.A. Weather past 2 weeks in Angels Camp, California, U.S.A.

Now
77 °F

Sunny.


Feels Like: 78 °F
Forecast: 46 / 77 °F
Wind: 18 mph from Northwest

Location: Modesto City-County-Sham Field

Current Time: Mar 27, 2015 at 7:26:56 PM

Latest Report: Mar 27, 2015 at 6:53 PM


Visibility: 10 mi

Pressure: 30.04 "Hg

Humidity: 35%

Dew point: 47 °F

Location of Angels CampLocation

Historic Weather in Angels Camp — Graph

°F

Angels Camp temperature yesterday

Maximum temperature yesterday: 85 °F (at 4:53 PM)
Minimum temperature yesterday: 49 °F (at 6:53 AM)
Average temperature yesterday: 67 °F

Past Weeks' High & Low Weather Summary

 TemperatureHumidityPressure
High86 °F (Mar 27, 2:53 PM)93% (Mar 20, 7:53 AM)30.29 "Hg (Mar 20, 7:53 AM)
Low47 °F (Mar 19, 6:53 AM)22% (Mar 26, 5:53 PM)29.96 "Hg (Mar 18, 5:53 PM)
Average65 °F57%30.09 "Hg
* Reported Mar 12 5:53 PM — Mar 27 5:53 PM, Angels Camp, Weather by CustomWeather, © 2015

Note: Actual official high and low records may vary slightly from our data, if they occured in-between our weather recording intervals... More about our weather records

Advertising

Angels Camp weather history for previous 24 hours

 ConditionsComfort  
Time TempWeatherWind HumidityBarometerVisibility
5:53 PM
Fri, Mar 27
84 °FSunny.15 mph29%30.03 "Hg10 mi
4:53 PM85 °FSunny.15 mph29%30.02 "Hg10 mi
3:53 PM86 °FSunny.8 mph28%30.03 "Hg10 mi
2:53 PM86 °FSunny.8 mph29%30.04 "Hg10 mi
1:53 PM84 °FSunny.8 mph32%30.07 "Hg10 mi
12:53 PM80 °FSunny.6 mph36%30.09 "Hg10 mi
11:53 AM79 °FSunny.7 mph41%30.11 "Hg10 mi
10:53 AM75 °FSunny.6 mph47%30.11 "Hg10 mi
9:53 AM71 °FSunny.7 mph53%30.11 "Hg10 mi
8:53 AM66 °FSunny.5 mph63%30.10 "Hg5 mi
7:53 AM57 °FClear.No wind87%30.09 "Hg7 mi
6:53 AM56 °FClear.No wind84%30.07 "Hg9 mi
5:53 AM56 °FClear.No wind87%30.06 "Hg10 mi
4:53 AM57 °FClear.No wind81%30.06 "Hg10 mi
3:53 AM59 °FClear.No wind78%30.06 "Hg10 mi
2:53 AM59 °FClear.No wind78%30.07 "Hg10 mi
1:53 AM61 °FClear.No wind72%30.08 "Hg10 mi
12:53 AM62 °FClear.No wind70%30.08 "Hg10 mi
11:53 PM
Thu, Mar 26
64 °FClear.No wind70%30.08 "Hg10 mi
10:53 PM66 °FClear.3 mph61%30.08 "Hg10 mi
9:53 PM68 °FClear.No wind63%30.07 "Hg10 mi
8:53 PM72 °FClear.No wind49%30.06 "Hg10 mi
7:53 PM77 °FSunny.No wind40%30.05 "Hg10 mi
Weather by CustomWeather, © 2015

See weather overviewHow to use our weather pages